Wind_Speed
45 43 37 38 41 44 47 45 42 39 43 44 40 35 29 24 24 26 38 46 52 50 50 50 48 42 47 43 42 43 38 37 40 41 42 42 42 38 33 34 36 33 29 28
33 32 33 33 32 35 36 37 33 33 36 35 26 23 25 24 26 26 27 25 25 35 60 57 52 48 41 45 46 42 40 44 43 40 43 49 49 47 41 31 31 40 32 24
30 31 30 29 29 29 29 28 31 32 31 27 25 23 23 24 26 27 32 27 18 22 43 65 56 53 37 43 41 51 41 46 46 41 41 43 49 51 46 34 37 40 39 31
26 26 25 25 28 30 33 33 33 28 27 21 20 23 21 22 23 26 30 27 27 20 35 63 56 51 48 29 36 35 45 50 46 41 37 35 50 52 44 36 35 37 31 33
26 26 28 30 32 36 39 35 32 28 27 27 27 26 23 25 23 23 19 25 24 21 29 55 64 52 41 34 32 34 35 42 45 46 39 38 54 49 49 45 38 36 34 33
29 30 30 31 35 41 42 40 37 37 35 34 33 28 27 27 25 24 20 21 26 32 27 55 64 66 56 47 22 31 43 39 36 43 35 43 50 51 53 49 46 37 36 34
36 38 39 40 43 47 47 47 44 44 42 40 37 33 33 29 30 26 25 26 25 26 24 51 55 65 65 55 42 25 37 45 44 39 36 41 49 50 51 48 42 33 30 29
42 43 45 48 50 53 55 55 53 52 50 49 45 40 35 33 32 33 32 26 21 26 29 30 61 57 58 64 55 25 20 31 45 40 39 41 42 52 50 44 43 42 35 36
48 49 49 50 51 53 57 61 61 60 57 52 49 45 41 37 34 35 32 29 27 28 33 28 53 63 55 61 57 27 25 30 47 42 31 42 39 45 50 56 44 38 39 33
60 59 59 58 57 58 59 60 59 58 56 50 52 51 47 42 37 37 35 31 29 30 31 29 28 66 67 62 51 33 34 39 40 38 42 42 35 36 50 56 54 41 43 37
45 49 54 59 60 59 61 61 59 57 59 57 55 51 51 47 42 37 38 36 36 34 32 33 28 42 73 66 56 42 20 33 40 36 39 45 38 38 43 54 52 51 51 43
46 45 44 42 42 45 47 46 47 55 60 59 58 54 49 45 45 39 37 38 35 32 30 32 26 38 60 63 52 39 20 33 31 40 43 42 41 43 45 46 45 54 47 49
45 46 46 47 46 47 45 45 44 43 44 49 63 59 48 48 49 43 39 35 34 32 30 31 30 38 60 63 57 41 24 16 25 38 33 38 39 40 28 31 36 41 40 49
41 41 44 44 48 47 45 44 42 37 34 40 52 55 50 44 45 40 35 31 33 30 27 27 28 36 51 64 46 56 31 24 18 23 25 32 40 36 37 32 32 34 36 32
43 41 42 47 46 46 44 41 34 29 29 35 46 49 47 45 43 39 33 29 23 27 26 26 28 34 31 40 39 40 29 25 21 20 23 25 21 39 36 34 35 28 34 38
43 41 40 35 38 47 47 42 34 28 28 36 42 43 48 49 42 31 31 32 29 27 26 22 31 33 34 36 32 52 54 42 38 37 33 25 18 27 26 36 39 35 31 34
35 34 32 41 45 47 41 31 21 24 38 27 27 36 37 46 44 31 32 37 36 32 29 24 32 43 39 39 39 31 47 46 38 36 36 33 25 21 22 23 27 29 28 32
38 38 39 42 44 44 38 30 34 45 26 16 32 35 41 41 37 31 39 37 37 31 28 25 29 51 44 40 36 37 42 43 47 40 35 32 28 24 19 20 22 24 26 29
44 44 44 41 41 39 34 31 36 42 20 24 27 39 46 37 42 43 42 36 34 34 31 31 31 41 58 36 37 44 42 40 34 39 41 30 27 21 18 20 22 23 25 27
41 42 40 40 37 37 38 37 42 55 33 26 34 37 38 39 37 36 35 35 34 34 32 32 35 38 55 57 37 43 39 32 31 41 40 31 28 26 23 24 26 28 27 28
36 41 44 43 43 39 35 36 41 40 37 39 41 38 34 31 28 29 30 29 29 28 27 28 37 38 46 45 40 29 33 35 35 34 31 28 29 28 27 29 31 30 30 30
36 36 38 36 34 36 39 43 43 41 36 36 35 33 32 26 21 20 25 26 28 25 27 32 45 43 44 36 39 28 31 36 33 33 30 29 26 27 31 33 33 32 31 29
35 35 36 35 34 33 34 36 34 31 30 28 23 20 19 20 21 21 22 28 28 22 19 34 53 49 29 31 38 32 32 32 34 35 34 33 31 32 32 31 31 32 31 32
28 30 31 30 28 26 25 24 23 24 23 25 24 21 20 21 25 27 22 23 23 25 25 26 52 28 26 33 28 30 31 35 23 28 37 34 33 35 34 32 30 31 31 31
23 23 21 20 18 18 19 21 23 23 21 17 13 15 12 12 15 15 12 16 20 17 15 24 46 31 33 34 33 34 34 38 32 31 35 29 28 29 28 29 30 30 31 33
17 14 16 14 16 18 20 21 19 15 10 13 12 10 8 12 14 20 20 22 24 15 11 27 41 33 31 31 34 30 32 35 36 37 37 35 32 31 32 30 29 29 31 30
16 15 14 15 17 18 15 16 13 10 18 15 14 11 7 10 15 16 17 9 9 12 17 31 34 35 34 39 32 32 35 34 34 35 36 36 37 34 29 28 28 29 32 31
Wind_Direction
264 262 256 257 251 247 246 245 243 235 233 239 242 241 244 232 220 225 228 231 235 228 210 217 221 217 225 216 219 218 218 226 226 218 221 226 221 221 232 234 236 246 245 229
247 249 252 251 247 242 241 241 236 221 215 227 228 226 225 231 230 232 237 242 245 249 211 215 209 207 206 215 213 214 209 217 220 213 219 225 226 220 214 232 229 237 246 237
246 244 241 239 236 231 224 221 214 211 211 212 220 231 233 230 231 233 239 236 241 258 233 216 203 207 205 205 218 216 205 217 222 220 228 224 230 222 217 216 232 230 238 242
238 239 237 233 228 227 230 221 214 213 221 218 237 243 241 235 232 236 241 240 233 267 230 215 216 209 206 199 203 214 204 218 220 219 218 231 230 227 218 220 232 238 238 248
235 231 230 228 228 228 232 230 227 227 234 241 243 245 236 231 226 235 233 236 229 241 234 216 223 224 217 206 206 213 227 216 221 220 222 225 225 218 217 214 225 242 243 242
238 234 231 230 227 226 228 229 231 235 235 239 242 237 239 240 236 234 228 232 223 230 237 215 216 225 228 238 215 203 219 226 221 222 222 219 220 214 221 219 219 229 231 236
243 240 237 234 231 230 232 233 234 238 242 243 248 249 247 241 239 228 231 234 231 229 246 218 214 217 218 215 220 218 221 224 217 226 225 222 218 215 220 222 218 224 233 231
252 247 243 240 238 237 237 236 237 239 242 244 242 238 236 239 234 227 225 232 233 224 228 235 215 219 222 224 228 234 219 219 226 224 225 228 226 219 225 219 217 217 228 229
257 251 245 240 236 233 237 237 237 240 241 239 241 241 237 233 229 231 225 225 231 226 234 237 221 218 219 220 224 242 234 229 221 229 227 224 227 222 224 229 222 213 229 228
255 250 246 241 236 233 234 236 235 235 235 233 234 234 233 232 229 226 224 217 226 228 234 237 248 219 213 215 213 252 228 226 228 228 233 231 236 229 226 231 228 227 239 224
253 248 245 243 240 239 238 237 235 235 236 236 235 232 228 227 225 225 222 222 228 235 236 240 264 231 215 220 226 231 232 235 221 221 230 237 231 230 228 228 232 230 235 239
246 240 235 231 229 229 229 229 231 230 230 232 232 228 225 224 226 224 220 224 227 233 241 242 259 229 214 216 214 227 241 225 234 227 233 235 234 234 238 227 236 226 231 236
242 238 233 228 227 226 229 228 226 227 229 227 226 221 218 218 221 220 222 218 225 233 235 236 250 226 214 213 212 222 244 237 224 227 236 236 232 224 222 222 230 234 234 235
235 230 222 222 224 222 220 224 222 221 224 224 217 217 208 209 215 216 216 212 218 226 231 245 243 220 216 219 223 222 233 246 231 240 237 230 232 229 226 228 242 247 243 240
227 222 219 218 212 213 213 214 210 214 220 221 205 211 208 200 196 201 200 196 216 218 222 232 232 209 208 217 221 205 220 237 246 259 263 234 228 230 229 232 242 248 240 238
204 206 198 193 196 192 191 195 195 202 215 195 202 206 206 189 183 188 200 193 209 215 215 230 218 204 214 213 219 215 224 240 245 257 263 244 228 221 223 234 239 247 238 253
167 169 174 168 173 179 176 172 173 183 165 166 202 203 195 188 193 186 191 198 202 214 218 222 216 204 214 210 213 209 214 225 236 245 256 253 239 230 243 234 234 240 238 231
143 147 150 155 160 164 168 165 170 175 165 148 193 190 177 180 186 190 195 200 207 217 216 223 221 214 212 212 200 199 202 220 235 242 250 252 243 239 243 244 249 254 256 256
132 137 140 146 156 159 159 168 174 170 152 189 197 184 183 185 193 202 208 215 221 226 227 231 235 224 214 196 193 195 201 209 228 238 240 241 238 235 241 241 247 253 259 262
128 130 134 140 145 150 149 151 162 179 180 182 185 179 184 193 202 212 215 221 224 231 236 246 238 221 209 208 201 193 199 203 223 230 234 236 232 232 237 237 242 248 255 261
127 130 130 132 137 143 151 159 168 181 186 181 178 183 187 195 203 211 216 219 227 242 252 255 227 206 194 202 205 198 196 208 222 231 234 230 230 236 238 239 242 249 256 262
125 129 136 138 148 158 165 167 176 178 179 177 184 196 201 203 207 226 236 237 236 260 256 235 202 192 185 178 188 186 200 207 215 228 235 239 237 232 236 240 244 254 260 265
130 139 141 145 158 163 168 175 177 178 177 179 184 185 193 205 223 248 254 242 235 238 236 219 197 194 198 179 183 181 196 207 219 224 226 233 235 237 238 244 253 259 263 268
142 148 153 158 165 168 170 172 175 174 171 173 183 197 214 232 247 255 250 241 242 233 241 220 196 186 182 183 193 196 192 191 191 217 229 234 238 242 246 250 256 265 270 275
152 157 160 154 152 155 154 148 151 161 170 180 201 226 214 205 226 238 241 213 217 227 238 210 205 201 183 196 197 198 200 209 220 214 222 226 238 238 245 256 268 275 276 276
145 147 143 137 142 143 151 155 159 161 185 184 174 188 217 233 233 227 236 236 228 238 196 184 203 216 208 201 198 202 208 213 215 220 222 228 235 242 259 272 272 275 280 279
135 136 138 137 140 145 155 173 178 182 167 172 181 187 216 255 260 253 249 259 242 216 206 203 209 219 225 223 220 221 216 212 212 216 226 238 250 266 267 267 272 272 271 260
Height
5495 5497 5498 5500 5502 5506 5509 5516 5523 5532 5532 5537 5544 5553 5560 5567 5570 5572 5574 5577 5582 5589 5598 5603 5609 5619 5625 5630 5633 5638 5648 5655 5661 5669 5675 5680 5683 5686 5690 5691 5694 5698 5700 5704
5483 5487 5490 5492 5493 5495 5501 5506 5513 5519 5524 5528 5537 5545 5550 5556 5561 5565 5568 5571 5576 5577 5584 5589 5599 5611 5616 5616 5623 5632 5637 5639 5648 5659 5665 5667 5670 5676 5678 5685 5689 5689 5693 5699
5474 5478 5481 5485 5488 5492 5496 5501 5504 5509 5517 5524 5530 5537 5543 5549 5554 5558 5560 5566 5570 5569 5574 5583 5594 5602 5605 5610 5615 5621 5625 5631 5637 5649 5656 5662 5664 5668 5672 5676 5679 5684 5685 5692
5466 5470 5475 5479 5484 5489 5491 5492 5496 5504 5510 5518 5526 5530 5537 5542 5547 5551 5554 5560 5564 5564 5563 5571 5583 5594 5601 5603 5609 5611 5613 5622 5630 5639 5646 5653 5656 5659 5666 5669 5673 5676 5683 5684
5458 5463 5467 5471 5477 5481 5483 5485 5490 5499 5505 5512 5518 5523 5529 5535 5542 5545 5549 5552 5556 5558 5556 5562 5572 5577 5586 5591 5596 5606 5609 5612 5621 5627 5636 5640 5640 5650 5656 5659 5666 5669 5674 5676
5450 5455 5459 5464 5468 5470 5474 5479 5487 5491 5498 5504 5509 5516 5524 5529 5536 5540 5544 5546 5549 5549 5553 5555 5562 5567 5578 5584 5591 5594 5602 5606 5612 5619 5628 5631 5632 5643 5646 5652 5657 5661 5663 5669
5440 5445 5450 5454 5458 5461 5466 5472 5480 5484 5488 5495 5502 5510 5515 5522 5528 5534 5536 5538 5542 5549 5548 5548 5555 5561 5568 5574 5581 5587 5596 5599 5606 5608 5617 5618 5628 5637 5642 5646 5652 5656 5659 5663
5425 5430 5435 5440 5444 5449 5452 5458 5467 5473 5478 5485 5492 5500 5507 5513 5519 5524 5527 5534 5538 5539 5541 5543 5548 5556 5562 5570 5575 5581 5585 5589 5595 5600 5607 5614 5618 5632 5635 5636 5642 5646 5652 5655
5407 5412 5417 5422 5428 5434 5436 5443 5452 5459 5466 5473 5484 5490 5499 5505 5512 5517 5524 5526 5529 5533 5534 5538 5541 5549 5557 5564 5573 5575 5577 5581 5590 5594 5600 5603 5613 5622 5628 5628 5633 5641 5644 5649
5384 5390 5396 5402 5410 5417 5421 5425 5435 5442 5450 5463 5469 5479 5488 5496 5503 5509 5514 5517 5520 5525 5528 5530 5533 5539 5548 5554 5566 5571 5572 5577 5583 5588 5591 5595 5604 5611 5618 5620 5631 5634 5634 5639
5360 5365 5372 5380 5389 5396 5402 5410 5418 5427 5436 5450 5458 5467 5477 5486 5493 5499 5505 5508 5513 5516 5520 5523 5525 5528 5539 5547 5556 5566 5568 5571 5576 5581 5584 5588 5599 5603 5607 5612 5619 5625 5626 5632
5344 5350 5357 5364 5372 5380 5387 5396 5405 5412 5419 5434 5443 5454 5465 5477 5482 5489 5494 5503 5506 5511 5515 5516 5518 5522 5528 5543 5553 5556 5562 5569 5569 5573 5576 5583 5589 5595 5602 5606 5611 5615 5619 5625
5325 5333 5342 5350 5360 5369 5378 5386 5393 5400 5410 5421 5426 5438 5459 5463 5470 5479 5487 5494 5499 5504 5507 5509 5510 5513 5522 5530 5540 5551 5555 5560 5564 5567 5573 5577 5583 5589 5591 5595 5604 5607 5612 5616
5308 5317 5326 5336 5347 5358 5367 5376 5387 5393 5401 5405 5417 5429 5444 5455 5462 5472 5480 5487 5492 5497 5500 5503 5502 5505 5514 5525 5536 5543 5552 5554 5558 5562 5568 5571 5577 5582 5587 5592 5596 5600 5604 5608
5290 5302 5313 5323 5334 5348 5361 5371 5381 5389 5396 5403 5413 5422 5435 5443 5454 5465 5473 5480 5485 5490 5495 5495 5496 5501 5510 5517 5526 5536 5546 5549 5552 5558 5561 5564 5571 5574 5580 5584 5588 5592 5594 5597
5276 5291 5301 5314 5326 5340 5352 5364 5375 5385 5391 5401 5409 5420 5427 5439 5450 5460 5468 5473 5480 5484 5488 5491 5492 5499 5504 5511 5519 5532 5537 5544 5548 5554 5557 5560 5565 5567 5572 5575 5579 5583 5587 5590
5273 5287 5298 5310 5323 5337 5356 5372 5381 5384 5390 5400 5410 5417 5426 5437 5446 5453 5459 5467 5473 5477 5481 5485 5487 5494 5496 5502 5509 5523 5530 5535 5541 5545 5550 5554 5558 5561 5564 5566 5570 5574 5577 5581
5281 5292 5304 5317 5329 5344 5358 5370 5378 5382 5389 5395 5406 5414 5425 5434 5442 5448 5455 5462 5467 5471 5475 5479 5482 5486 5490 5495 5507 5514 5523 5531 5536 5539 5544 5548 5551 5554 5557 5560 5563 5566 5568 5571
5294 5304 5314 5325 5338 5350 5361 5369 5377 5386 5395 5401 5408 5417 5424 5429 5438 5445 5452 5457 5461 5465 5467 5470 5474 5476 5483 5498 5499 5506 5515 5523 5531 5534 5538 5542 5544 5547 5551 5554 5556 5558 5560 5562
5310 5318 5327 5336 5346 5356 5364 5373 5381 5385 5392 5402 5409 5417 5425 5432 5439 5444 5450 5453 5455 5456 5462 5464 5465 5468 5480 5485 5493 5501 5511 5518 5524 5526 5530 5536 5540 5542 5545 5548 5549 5551 5553 5554
5327 5332 5338 5346 5355 5364 5372 5378 5385 5390 5396 5403 5411 5419 5425 5430 5436 5441 5444 5446 5449 5452 5457 5457 5456 5461 5468 5480 5489 5496 5502 5510 5516 5520 5524 5529 5533 5536 5538 5540 5542 5545 5546 5546
5343 5348 5354 5358 5364 5369 5374 5378 5384 5391 5398 5406 5414 5420 5425 5430 5434 5438 5440 5442 5443 5446 5447 5448 5451 5459 5469 5475 5482 5489 5497 5504 5511 5514 5518 5521 5525 5528 5531 5533 5535 5537 5538 5539
5353 5358 5362 5366 5371 5375 5379 5384 5390 5396 5403 5411 5416 5421 5425 5428 5431 5432 5433 5433 5437 5438 5439 5440 5449 5457 5464 5469 5476 5481 5490 5498 5505 5509 5512 5515 5518 5520 5523 5525 5528 5529 5530 5531
5362 5366 5369 5372 5376 5381 5387 5392 5397 5402 5407 5412 5416 5420 5422 5424 5425 5425 5426 5429 5431 5433 5434 5437 5449 5455 5461 5467 5475 5480 5485 5492 5495 5502 5506 5509 5511 5512 5515 5518 5520 5521 5522 5522
5371 5374 5377 5380 5384 5387 5391 5395 5400 5404 5409 5413 5416 5417 5418 5420 5419 5420 5422 5424 5423 5428 5432 5437 5444 5453 5459 5465 5468 5474 5480 5484 5487 5492 5497 5501 5504 5506 5509 5511 5512 5512 5512 5511
5377 5379 5382 5385 5388 5391 5395 5399 5402 5406 5409 5411 5414 5415 5417 5416 5416 5417 5417 5419 5423 5428 5430 5436 5445 5452 5458 5462 5465 5470 5476 5480 5484 5487 5490 5493 5495 5498 5501 5502 5503 5502 5501 5500
5381 5383 5386 5389 5392 5395 5398 5400 5404 5407 5409 5410 5412 5414 5415 5415 5415 5415 5416 5418 5422 5426 5432 5438 5445 5450 5454 5458 5462 5466 5470 5473 5477 5480 5483 5486 5489 5491 5492 5493 5493 5493 5493 5492